Home > Weather > Riverside > Past weeks

Flag for U.S.A. Weather for the Past 2 Weeks in Riverside, California, U.S.A.

Now
70 °F

Clear.


Feels Like: 73 °F
Forecast: 53 / 84 °F
Wind: 10 mph from Northeast

Location: Riverside Municipal Airport

Current Time: Feb 8, 2016 at 6:48:19 AM

Latest Report: Feb 8, 2016 at 5:53 AM


Visibility: 10 mi

Pressure: 30.12 "Hg

Humidity: 15%

Dew point: 20 °F

Location of RiversideLocation

Historic Weather in Riverside — Graph

°F

Riverside Temperature Yesterday

Maximum temperature yesterday: 81 °F (at 1:53 PM)
Minimum temperature yesterday: 50 °F (at 6:53 AM)
Average temperature yesterday: 69 °F

High & Low Weather Summary for the Past Weeks

 TemperatureHumidityPressure
High81 °F (Feb 7, 1:53 PM)93% (Jan 24, 5:53 AM)30.34 "Hg (Jan 24, 5:53 AM)
Low37 °F (Feb 2, 3:53 AM)8% (Feb 7, 2:53 PM)29.58 "Hg (Jan 31, 1:53 PM)
Average57 °F40%30.11 "Hg
* Reported Jan 24 4:53 AM — Feb 8 4:53 AM, Riverside, Weather by CustomWeather, © 2016

Note: Actual official high and low records may vary slightly from our data, if they occured in-between our weather recording intervals... More about our weather records

Advertising

Riverside Weather History for the Previous 24 Hours

 ConditionsComfort  
Time TempWeatherWind HumidityBarometerVisibility
4:53 AM
Mon, Feb 8
70 °FClear.12 mph15%30.11 "Hg10 mi
3:53 AM71 °FClear.12 mph15%30.11 "Hg10 mi
2:53 AM71 °FClear.10 mph15%30.11 "Hg10 mi
1:53 AM71 °FClear.10 mph14%30.13 "Hg10 mi
12:53 AM71 °FClear.12 mph14%30.14 "Hg10 mi
11:53 PM
Sun, Feb 7
72 °FClear.10 mph13%30.14 "Hg10 mi
10:53 PM72 °FClear.13 mph12%30.14 "Hg10 mi
9:53 PM73 °FClear.13 mph11%30.13 "Hg10 mi
8:53 PM73 °FClear.10 mph10%30.13 "Hg10 mi
7:53 PM74 °FClear.16 mph10%30.13 "Hg10 mi
6:53 PM74 °FClear.8 mph9%30.12 "Hg10 mi
5:53 PM75 °FClear.14 mph9%30.10 "Hg10 mi
4:53 PM78 °FSunny.15 mph9%30.08 "Hg10 mi
3:53 PM80 °FSunny.17 mph8%30.08 "Hg10 mi
2:53 PM81 °FSunny.14 mph8%30.08 "Hg10 mi
1:53 PM81 °FSunny.14 mph9%30.08 "Hg10 mi
12:53 PM79 °FSunny.18 mph10%30.10 "Hg10 mi
11:53 AM79 °FSunny.15 mph10%30.12 "Hg10 mi
10:53 AM78 °FSunny.12 mph10%30.14 "Hg10 mi
9:53 AM74 °FSunny.9 mph14%30.16 "Hg10 mi
8:53 AM65 °FSunny.6 mph22%30.16 "Hg10 mi
7:53 AM57 °FSunny.6 mph28%30.14 "Hg10 mi
6:53 AM50 °FSunny.6 mph38%30.14 "Hg10 mi
Weather by CustomWeather, © 2016

See weather overviewHow to use our weather pages